Time,TemperatureF,DewpointF,PressureIn,WindDirection,WindDirectionDegrees,WindSpeedMPH,WindSpeedGustMPH,Humidity,HourlyPrecipIn,Conditions,Clouds,dailyrainin,SoftwareType,DateUTC
2013-05-01 00:04:00,25.8,23.0,29.79,SE,138,0.0,1.0,89,0.00,,,0.20,LWC V2.00 B2112,2013-05-01 08:04:00,
2013-05-01 00:09:00,25.8,23.0,29.80,SE,137,0.0,0.0,89,0.00,,,0.20,LWC V2.00 B2112,2013-05-01 08:09:00,
2013-05-01 00:14:00,25.8,23.0,29.80,East,93,2.0,2.0,89,0.00,,,0.20,LWC V2.00 B2112,2013-05-01 08:14:00,
2013-05-01 00:19:00,25.7,22.6,29.79,SE,141,1.0,1.0,88,0.00,,,0.20,LWC V2.00 B2112,2013-05-01 08:19:00,
2013-05-01 00:24:00,25.6,22.8,29.79,SSE,163,0.0,1.0,89,0.00,,,0.20,LWC V2.00 B2112,2013-05-01 08:24:00,
2013-05-01 00:29:00,25.4,22.6,29.79,ESE,103,0.0,1.0,89,0.00,,,0.20,LWC V2.00 B2112,2013-05-01 08:29:00,
2013-05-01 00:34:00,25.3,22.5,29.79,ESE,122,0.0,2.0,89,0.00,,,0.20,LWC V2.00 B2112,2013-05-01 08:34:00,
2013-05-01 00:39:00,25.2,22.7,29.79,NE,45,0.0,1.0,90,0.00,,,0.20,LWC V2.00 B2112,2013-05-01 08:39:00,
2013-05-01 00:44:00,25.1,22.6,29.79,SSE,153,0.0,0.0,90,0.00,,,0.20,LWC V2.00 B2112,2013-05-01 08:44:00,
2013-05-01 00:49:00,25.0,22.5,29.79,ESE,104,0.0,0.0,90,0.00,,,0.20,LWC V2.00 B2112,2013-05-01 08:49:00,
2013-05-01 00:54:00,24.9,22.7,29.79,East,93,0.0,0.0,91,0.00,,,0.20,LWC V2.00 B2112,2013-05-01 08:54:00,
2013-05-01 00:59:00,24.8,22.6,29.79,East,96,0.0,2.0,91,0.00,,,0.20,LWC V2.00 B2112,2013-05-01 08:59:00,
2013-05-01 01:04:00,24.8,22.6,29.79,SE,126,0.0,1.0,91,0.00,,,0.20,LWC V2.00 B2112,2013-05-01 09:04:00,
2013-05-01 01:09:00,24.7,22.5,29.79,ESE,115,2.0,2.0,91,0.00,,,0.20,LWC V2.00 B2112,2013-05-01 09:09:00,
2013-05-01 01:14:00,24.6,22.4,29.79,ESE,104,0.0,0.0,91,0.00,,,0.20,LWC V2.00 B2112,2013-05-01 09:14:00,
2013-05-01 01:19:00,24.6,22.1,29.79,ESE,104,0.0,0.0,90,0.00,,,0.20,LWC V2.00 B2112,2013-05-01 09:19:00,
2013-05-01 01:24:00,24.4,21.9,29.79,ESE,103,0.0,0.0,90,0.00,,,0.00,LWC V2.00 B2112,2013-05-01 09:24:00,
2013-05-01 01:29:00,24.3,22.1,29.79,ESE,105,0.0,0.0,91,0.00,,,0.00,LWC V2.00 B2112,2013-05-01 09:29:00,
2013-05-01 01:34:00,24.2,21.7,29.79,East,94,1.0,2.0,90,0.00,,,0.00,LWC V2.00 B2112,2013-05-01 09:34:00,
2013-05-01 01:39:00,24.2,21.7,29.79,East,101,1.0,1.0,90,0.00,,,0.00,LWC V2.00 B2112,2013-05-01 09:39:00,
2013-05-01 01:44:00,24.1,21.6,29.78,East,100,0.0,0.0,90,0.00,,,0.00,LWC V2.00 B2112,2013-05-01 09:44:00,
2013-05-01 01:49:00,24.0,21.5,29.78,ESE,120,0.0,1.0,90,0.00,,,0.00,LWC V2.00 B2112,2013-05-01 09:49:00,
2013-05-01 01:54:00,24.0,21.5,29.78,ENE,71,0.0,1.0,90,0.00,,,0.00,LWC V2.00 B2112,2013-05-01 09:54:00,
2013-05-01 01:59:00,24.0,21.2,29.78,East,86,0.0,0.0,89,0.00,,,0.00,LWC V2.00 B2112,2013-05-01 09:59:00,
2013-05-01 02:04:00,24.0,21.2,29.78,SSE,151,0.0,2.0,89,0.00,,,0.00,LWC V2.00 B2112,2013-05-01 10:04:00,
2013-05-01 02:09:00,23.9,21.1,29.78,West,272,0.0,0.0,89,0.00,,,0.00,LWC V2.00 B2112,2013-05-01 10:09:00,
2013-05-01 02:14:00,23.9,21.1,29.78,East,100,1.0,2.0,89,0.00,,,0.00,LWC V2.00 B2112,2013-05-01 10:14:00,
2013-05-01 02:19:00,23.8,21.0,29.78,SE,130,0.0,0.0,89,0.00,,,0.00,LWC V2.00 B2112,2013-05-01 10:19:00,
2013-05-01 02:24:00,23.9,21.1,29.78,ESE,105,1.0,2.0,89,0.00,,,0.00,LWC V2.00 B2112,2013-05-01 10:24:00,
2013-05-01 02:29:00,23.9,21.1,29.77,ESE,111,0.0,1.0,89,0.00,,,0.00,LWC V2.00 B2112,2013-05-01 10:29:00,
2013-05-01 02:34:00,23.9,21.1,29.77,East,84,0.0,0.0,89,0.00,,,0.00,LWC V2.00 B2112,2013-05-01 10:34:00,
2013-05-01 02:39:00,23.9,21.1,29.77,ESE,113,0.0,0.0,89,0.00,,,0.00,LWC V2.00 B2112,2013-05-01 10:39:00,
2013-05-01 02:44:00,23.8,21.0,29.77,ESE,118,0.0,0.0,89,0.00,,,0.00,LWC V2.00 B2112,2013-05-01 10:44:00,
2013-05-01 02:49:00,23.8,20.8,29.77,ESE,107,0.0,1.0,88,0.00,,,0.00,LWC V2.00 B2112,2013-05-01 10:49:00,
2013-05-01 02:54:00,23.8,20.8,29.77,ENE,78,0.0,3.0,88,0.00,,,0.00,LWC V2.00 B2112,2013-05-01 10:54:00,
2013-05-01 02:59:00,23.8,20.8,29.77,SW,219,0.0,0.0,88,0.00,,,0.00,LWC V2.00 B2112,2013-05-01 10:59:00,
2013-05-01 03:04:00,23.8,21.0,29.77,East,93,0.0,1.0,89,0.00,,,0.00,LWC V2.00 B2112,2013-05-01 11:04:00,
2013-05-01 03:09:00,23.8,20.8,29.76,ESE,115,0.0,1.0,88,0.00,,,0.00,LWC V2.00 B2112,2013-05-01 11:09:00,
2013-05-01 03:14:00,23.7,20.7,29.76,East,101,0.0,1.0,88,0.00,,,0.00,LWC V2.00 B2112,2013-05-01 11:14:00,
2013-05-01 03:19:00,23.7,20.7,29.76,ESE,103,0.0,1.0,88,0.00,,,0.00,LWC V2.00 B2112,2013-05-01 11:19:00,
2013-05-01 03:24:00,23.6,20.6,29.76,ESE,111,0.0,0.0,88,0.00,,,0.00,LWC V2.00 B2112,2013-05-01 11:24:00,
2013-05-01 03:29:00,23.6,20.6,29.76,East,94,0.0,1.0,88,0.00,,,0.00,LWC V2.00 B2112,2013-05-01 11:29:00,
2013-05-01 03:34:00,23.5,20.5,29.76,ESE,117,1.0,1.0,88,0.00,,,0.00,LWC V2.00 B2112,2013-05-01 11:34:00,
2013-05-01 03:39:00,23.6,20.3,29.76,ESE,108,0.0,0.0,87,0.00,,,0.00,LWC V2.00 B2112,2013-05-01 11:39:00,
2013-05-01 03:44:00,23.5,20.2,29.76,NNE,33,0.0,1.0,87,0.00,,,0.00,LWC V2.00 B2112,2013-05-01 11:44:00,
2013-05-01 03:49:00,23.5,20.2,29.76,East,99,0.0,1.0,87,0.00,,,0.00,LWC V2.00 B2112,2013-05-01 11:49:00,
2013-05-01 03:54:00,23.5,20.5,29.76,SE,132,0.0,0.0,88,0.00,,,0.00,LWC V2.00 B2112,2013-05-01 11:54:00,
2013-05-01 03:59:00,23.4,20.4,29.75,SE,128,0.0,0.0,88,0.00,,,0.00,LWC V2.00 B2112,2013-05-01 11:59:00,
2013-05-01 04:04:00,23.3,20.3,29.75,SE,144,1.0,1.0,88,0.00,,,0.00,LWC V2.00 B2112,2013-05-01 12:04:00,
2013-05-01 04:09:00,23.3,20.5,29.75,ESE,122,1.0,1.0,89,0.00,,,0.00,LWC V2.00 B2112,2013-05-01 12:09:00,
2013-05-01 04:14:00,23.3,20.3,29.75,ESE,113,1.0,1.0,88,0.00,,,0.00,LWC V2.00 B2112,2013-05-01 12:14:00,
2013-05-01 04:19:00,23.3,20.5,29.75,East,80,1.0,1.0,89,0.00,,,0.00,LWC V2.00 B2112,2013-05-01 12:19:00,
2013-05-01 04:24:00,23.4,20.6,29.75,SE,125,0.0,1.0,89,0.00,,,0.00,LWC V2.00 B2112,2013-05-01 12:24:00,
2013-05-01 04:29:00,23.4,20.6,29.74,ESE,123,0.0,1.0,89,0.00,,,0.00,LWC V2.00 B2112,2013-05-01 12:29:00,
2013-05-01 04:34:00,23.5,20.7,29.74,ESE,114,0.0,1.0,89,0.00,,,0.00,LWC V2.00 B2112,2013-05-01 12:34:00,
2013-05-01 04:39:00,23.5,20.7,29.74,ESE,123,0.0,1.0,89,0.00,,,0.00,LWC V2.00 B2112,2013-05-01 12:39:00,
2013-05-01 04:44:00,23.6,20.6,29.74,ESE,102,1.0,1.0,88,0.00,,,0.00,LWC V2.00 B2112,2013-05-01 12:44:00,
2013-05-01 04:49:00,23.6,20.8,29.74,ESE,114,0.0,1.0,89,0.00,,,0.00,LWC V2.00 B2112,2013-05-01 12:49:00,
2013-05-01 04:54:00,23.6,20.8,29.74,ESE,109,1.0,2.0,89,0.00,,,0.00,LWC V2.00 B2112,2013-05-01 12:54:00,
2013-05-01 04:59:00,23.5,20.7,29.73,East,87,1.0,1.0,89,0.00,,,0.00,LWC V2.00 B2112,2013-05-01 12:59:00,
2013-05-01 05:04:00,23.5,20.7,29.73,ESE,107,1.0,2.0,89,0.00,,,0.00,LWC V2.00 B2112,2013-05-01 13:04:00,
2013-05-01 05:09:00,23.4,20.6,29.73,East,95,0.0,1.0,89,0.00,,,0.00,LWC V2.00 B2112,2013-05-01 13:09:00,
2013-05-01 05:14:00,23.4,20.9,29.73,East,97,1.0,1.0,90,0.00,,,0.00,LWC V2.00 B2112,2013-05-01 13:14:00,
2013-05-01 05:19:00,23.3,20.8,29.73,East,92,0.0,2.0,90,0.00,,,0.00,LWC V2.00 B2112,2013-05-01 13:19:00,
2013-05-01 05:24:00,23.3,20.8,29.73,ENE,76,0.0,3.0,90,0.00,,,0.00,LWC V2.00 B2112,2013-05-01 13:24:00,
2013-05-01 05:29:00,23.2,20.7,29.73,ESE,115,0.0,2.0,90,0.00,,,0.00,LWC V2.00 B2112,2013-05-01 13:29:00,
2013-05-01 05:34:00,23.2,20.7,29.73,ESE,107,0.0,1.0,90,0.00,,,0.00,LWC V2.00 B2112,2013-05-01 13:34:00,
2013-05-01 05:39:00,23.1,20.9,29.72,SE,125,1.0,2.0,91,0.00,,,0.00,LWC V2.00 B2112,2013-05-01 13:39:00,
2013-05-01 05:44:00,23.1,20.9,29.72,SE,132,0.0,2.0,91,0.00,,,0.00,LWC V2.00 B2112,2013-05-01 13:44:00,
2013-05-01 05:49:00,23.0,20.8,29.72,SE,125,1.0,2.0,91,0.00,,,0.00,LWC V2.00 B2112,2013-05-01 13:49:00,
2013-05-01 05:54:00,23.0,20.8,29.72,ESE,105,1.0,1.0,91,0.00,,,0.00,LWC V2.00 B2112,2013-05-01 13:54:00,
2013-05-01 05:59:00,23.0,20.5,29.72,ESE,113,1.0,3.0,90,0.00,,,0.00,LWC V2.00 B2112,2013-05-01 13:59:00,
2013-05-01 06:04:00,23.0,20.5,29.72,WSW,248,0.0,1.0,90,0.00,,,0.00,LWC V2.00 B2112,2013-05-01 14:04:00,
2013-05-01 06:09:00,23.0,20.8,29.72,East,100,1.0,1.0,91,0.00,,,0.00,LWC V2.00 B2112,2013-05-01 14:09:00,
2013-05-01 06:14:00,22.9,20.7,29.71,ESE,119,0.0,1.0,91,0.00,,,0.00,LWC V2.00 B2112,2013-05-01 14:14:00,
2013-05-01 06:19:00,22.9,20.7,29.71,SE,128,0.0,1.0,91,0.00,,,0.00,LWC V2.00 B2112,2013-05-01 14:19:00,
2013-05-01 06:24:00,22.9,20.7,29.71,SSE,149,0.0,2.0,91,0.00,,,0.00,LWC V2.00 B2112,2013-05-01 14:24:00,
2013-05-01 06:29:00,22.9,20.4,29.71,ESE,116,1.0,1.0,90,0.00,,,0.00,LWC V2.00 B2112,2013-05-01 14:29:00,
2013-05-01 06:34:00,22.9,20.4,29.71,East,100,1.0,1.0,90,0.00,,,0.00,LWC V2.00 B2112,2013-05-01 14:34:00,
2013-05-01 06:39:00,23.0,20.5,29.71,ESE,111,1.0,2.0,90,0.00,,,0.00,LWC V2.00 B2112,2013-05-01 14:39:00,
2013-05-01 06:44:00,23.1,20.1,29.71,ESE,122,1.0,1.0,88,0.00,,,0.00,LWC V2.00 B2112,2013-05-01 14:44:00,
2013-05-01 06:49:00,23.2,20.2,29.71,East,83,0.0,4.0,88,0.00,,,0.00,LWC V2.00 B2112,2013-05-01 14:49:00,
2013-05-01 06:54:00,23.2,20.2,29.71,ESE,115,0.0,0.0,88,0.00,,,0.00,LWC V2.00 B2112,2013-05-01 14:54:00,
2013-05-01 06:59:00,23.4,20.4,29.71,ESE,114,0.0,3.0,88,0.00,,,0.00,LWC V2.00 B2112,2013-05-01 14:59:00,
2013-05-01 07:04:00,23.5,20.2,29.71,SW,233,1.0,3.0,87,0.00,,,0.00,LWC V2.00 B2112,2013-05-01 15:04:00,
2013-05-01 07:09:00,23.5,20.2,29.70,East,80,1.0,2.0,87,0.00,,,0.00,LWC V2.00 B2112,2013-05-01 15:09:00,
2013-05-01 07:14:00,23.5,20.2,29.70,SE,136,0.0,2.0,87,0.00,,,0.00,LWC V2.00 B2112,2013-05-01 15:14:00,
2013-05-01 07:19:00,23.6,20.3,29.70,SSE,163,0.0,3.0,87,0.00,,,0.00,LWC V2.00 B2112,2013-05-01 15:19:00,
2013-05-01 07:24:00,23.7,20.1,29.70,SE,146,1.0,2.0,86,0.00,,,0.00,LWC V2.00 B2112,2013-05-01 15:24:00,
2013-05-01 07:29:00,23.8,20.2,29.70,SE,125,0.0,1.0,86,0.00,,,0.00,LWC V2.00 B2112,2013-05-01 15:29:00,
2013-05-01 07:34:00,23.9,20.3,29.70,ESE,103,1.0,1.0,86,0.00,,,0.00,LWC V2.00 B2112,2013-05-01 15:34:00,
2013-05-01 07:39:00,24.1,20.3,29.70,East,86,2.0,2.0,85,0.00,,,0.00,LWC V2.00 B2112,2013-05-01 15:39:00,
2013-05-01 07:44:00,24.2,20.4,29.70,ESE,105,1.0,1.0,85,0.00,,,0.00,LWC V2.00 B2112,2013-05-01 15:44:00,
2013-05-01 07:49:00,24.4,20.3,29.69,ESE,106,1.0,2.0,84,0.00,,,0.00,LWC V2.00 B2112,2013-05-01 15:49:00,
2013-05-01 07:54:00,24.5,20.4,29.69,NE,55,0.0,1.0,84,0.00,,,0.00,LWC V2.00 B2112,2013-05-01 15:54:00,
2013-05-01 07:59:00,24.8,20.7,29.69,ESE,107,0.0,1.0,84,0.00,,,0.00,LWC V2.00 B2112,2013-05-01 15:59:00,
2013-05-01 08:04:00,25.1,21.2,29.69,ESE,121,0.0,1.0,85,0.00,,,0.00,LWC V2.00 B2112,2013-05-01 16:04:00,
2013-05-01 08:09:00,25.3,21.2,29.69,ESE,115,0.0,1.0,84,0.00,,,0.00,LWC V2.00 B2112,2013-05-01 16:09:00,
2013-05-01 08:14:00,25.8,21.6,29.69,East,101,0.0,1.0,84,0.00,,,0.00,LWC V2.00 B2112,2013-05-01 16:14:00,
2013-05-01 08:19:00,26.0,21.6,29.69,East,88,0.0,1.0,83,0.00,,,0.00,LWC V2.00 B2112,2013-05-01 16:19:00,
2013-05-01 08:24:00,26.2,21.5,29.69,ESE,114,0.0,1.0,82,0.00,,,0.00,LWC V2.00 B2112,2013-05-01 16:24:00,
2013-05-01 08:29:00,26.5,21.8,29.69,SE,126,0.0,1.0,82,0.00,,,0.00,LWC V2.00 B2112,2013-05-01 16:29:00,
2013-05-01 08:34:00,26.7,21.4,29.69,East,88,2.0,2.0,80,0.00,,,0.00,LWC V2.00 B2112,2013-05-01 16:34:00,
2013-05-01 08:39:00,26.5,21.2,29.69,ESE,111,0.0,0.0,80,0.00,,,0.00,LWC V2.00 B2112,2013-05-01 16:39:00,
2013-05-01 08:44:00,26.3,20.7,29.69,NW,304,1.0,2.0,79,0.00,,,0.00,LWC V2.00 B2112,2013-05-01 16:44:00,
2013-05-01 08:49:00,26.3,21.0,29.69,ENE,66,1.0,2.0,80,0.00,,,0.00,LWC V2.00 B2112,2013-05-01 16:49:00,
2013-05-01 08:54:00,26.2,20.9,29.69,WNW,294,2.0,2.0,80,0.00,,,0.00,LWC V2.00 B2112,2013-05-01 16:54:00,
2013-05-01 08:59:00,26.4,21.1,29.68,ESE,115,1.0,2.0,80,0.00,,,0.00,LWC V2.00 B2112,2013-05-01 16:59:00,
2013-05-01 09:04:00,26.5,20.9,29.68,ENE,76,0.0,1.0,79,0.00,,,0.00,LWC V2.00 B2112,2013-05-01 17:04:00,
2013-05-01 09:09:00,26.6,21.3,29.68,ESE,113,1.0,2.0,80,0.00,,,0.00,LWC V2.00 B2112,2013-05-01 17:09:00,
2013-05-01 09:14:00,26.7,21.4,29.68,East,94,1.0,2.0,80,0.00,,,0.00,LWC V2.00 B2112,2013-05-01 17:14:00,
2013-05-01 09:19:00,26.9,21.6,29.68,ESE,115,1.0,2.0,80,0.00,,,0.00,LWC V2.00 B2112,2013-05-01 17:19:00,
2013-05-01 09:24:00,27.3,21.7,29.68,East,84,1.0,2.0,79,0.00,,,0.00,LWC V2.00 B2112,2013-05-01 17:24:00,
2013-05-01 09:29:00,28.1,22.1,29.67,ESE,109,3.0,4.0,78,0.00,,,0.00,LWC V2.00 B2112,2013-05-01 17:29:00,
2013-05-01 09:34:00,28.6,22.3,29.67,ESE,122,2.0,2.0,77,0.00,,,0.00,LWC V2.00 B2112,2013-05-01 17:34:00,
2013-05-01 09:39:00,28.5,21.6,29.68,SSE,167,1.0,3.0,75,0.00,,,0.00,LWC V2.00 B2112,2013-05-01 17:39:00,
2013-05-01 09:44:00,28.2,21.6,29.67,East,96,2.0,2.0,76,0.00,,,0.00,LWC V2.00 B2112,2013-05-01 17:44:00,
2013-05-01 09:49:00,27.9,21.6,29.67,ESE,122,1.0,2.0,77,0.00,,,0.00,LWC V2.00 B2112,2013-05-01 17:49:00,
2013-05-01 09:54:00,27.8,21.5,29.67,SW,226,0.0,2.0,77,0.00,,,0.00,LWC V2.00 B2112,2013-05-01 17:54:00,
2013-05-01 09:59:00,27.8,21.5,29.67,East,84,1.0,3.0,77,0.00,,,0.00,LWC V2.00 B2112,2013-05-01 17:59:00,
2013-05-01 10:04:00,27.8,21.5,29.67,East,94,0.0,1.0,77,0.00,,,0.00,LWC V2.00 B2112,2013-05-01 18:04:00,
2013-05-01 10:09:00,28.3,21.7,29.67,ESE,117,4.0,5.0,76,0.00,,,0.00,LWC V2.00 B2112,2013-05-01 18:09:00,
2013-05-01 10:14:00,28.3,22.0,29.67,ESE,108,1.0,3.0,77,0.00,,,0.00,LWC V2.00 B2112,2013-05-01 18:14:00,
2013-05-01 10:19:00,28.5,21.9,29.67,SSW,197,2.0,3.0,76,0.00,,,0.00,LWC V2.00 B2112,2013-05-01 18:19:00,
2013-05-01 10:24:00,28.8,21.9,29.67,SSE,156,0.0,2.0,75,0.00,,,0.00,LWC V2.00 B2112,2013-05-01 18:24:00,
2013-05-01 10:29:00,29.0,21.8,29.67,NW,319,0.0,3.0,74,0.00,,,0.00,LWC V2.00 B2112,2013-05-01 18:29:00,
2013-05-01 10:34:00,29.3,22.1,29.67,NE,41,1.0,1.0,74,0.00,,,0.00,LWC V2.00 B2112,2013-05-01 18:34:00,
2013-05-01 10:39:00,29.2,21.6,29.67,East,84,2.0,2.0,73,0.00,,,0.00,LWC V2.00 B2112,2013-05-01 18:39:00,
2013-05-01 10:44:00,29.0,21.8,29.67,NNE,28,2.0,2.0,74,0.00,,,0.00,LWC V2.00 B2112,2013-05-01 18:44:00,
2013-05-01 10:49:00,29.0,21.8,29.67,East,97,2.0,2.0,74,0.00,,,0.00,LWC V2.00 B2112,2013-05-01 18:49:00,
2013-05-01 10:54:00,29.4,22.5,29.67,ESE,107,0.0,0.0,75,0.00,,,0.00,LWC V2.00 B2112,2013-05-01 18:54:00,
2013-05-01 10:59:00,30.0,22.7,29.67,NE,50,1.0,2.0,74,0.00,,,0.00,LWC V2.00 B2112,2013-05-01 18:59:00,
2013-05-01 11:04:00,29.7,21.8,29.67,East,80,2.0,2.0,72,0.00,,,0.00,LWC V2.00 B2112,2013-05-01 19:04:00,
2013-05-01 11:09:00,29.4,22.2,29.67,ESE,103,1.0,2.0,74,0.00,,,0.00,LWC V2.00 B2112,2013-05-01 19:09:00,
2013-05-01 11:14:00,29.8,22.2,29.66,SW,226,1.0,2.0,73,0.00,,,0.00,LWC V2.00 B2112,2013-05-01 19:14:00,
2013-05-01 11:19:00,30.3,22.0,29.66,ESE,113,1.0,4.0,71,0.00,,,0.00,LWC V2.00 B2112,2013-05-01 19:19:00,
2013-05-01 11:24:00,30.4,22.8,29.66,East,91,1.0,3.0,73,0.00,,,0.00,LWC V2.00 B2112,2013-05-01 19:24:00,
2013-05-01 11:29:00,30.4,22.5,29.66,NNE,32,2.0,5.0,72,0.00,,,0.00,LWC V2.00 B2112,2013-05-01 19:29:00,
2013-05-01 11:34:00,30.4,22.1,29.66,NW,325,1.0,4.0,71,0.00,,,0.00,LWC V2.00 B2112,2013-05-01 19:34:00,
2013-05-01 11:39:00,30.1,22.2,29.66,East,80,0.0,4.0,72,0.00,,,0.00,LWC V2.00 B2112,2013-05-01 19:39:00,
2013-05-01 11:44:00,30.1,22.8,29.66,East,100,2.0,3.0,74,0.00,,,0.00,LWC V2.00 B2112,2013-05-01 19:44:00,
2013-05-01 11:49:00,30.4,22.8,29.66,ENE,71,2.0,3.0,73,0.00,,,0.00,LWC V2.00 B2112,2013-05-01 19:49:00,
2013-05-01 11:54:00,30.4,22.5,29.66,ENE,58,2.0,3.0,72,0.00,,,0.00,LWC V2.00 B2112,2013-05-01 19:54:00,
2013-05-01 11:59:00,30.4,22.5,29.66,East,85,2.0,3.0,72,0.00,,,0.00,LWC V2.00 B2112,2013-05-01 19:59:00,
2013-05-01 12:04:00,30.5,22.9,29.66,ENE,65,2.0,3.0,73,0.00,,,0.00,LWC V2.00 B2112,2013-05-01 20:04:00,
2013-05-01 12:09:00,30.8,23.2,29.66,East,86,2.0,6.0,73,0.00,,,0.00,LWC V2.00 B2112,2013-05-01 20:09:00,
2013-05-01 12:14:00,30.8,23.2,29.66,NE,54,1.0,4.0,73,0.00,,,0.00,LWC V2.00 B2112,2013-05-01 20:14:00,
2013-05-01 12:19:00,30.5,22.9,29.66,East,99,1.0,5.0,73,0.00,,,0.00,LWC V2.00 B2112,2013-05-01 20:19:00,
2013-05-01 12:24:00,30.4,22.8,29.66,NW,304,1.0,2.0,73,0.00,,,0.00,LWC V2.00 B2112,2013-05-01 20:24:00,
2013-05-01 12:29:00,30.6,22.7,29.66,ESE,120,1.0,3.0,72,0.00,,,0.00,LWC V2.00 B2112,2013-05-01 20:29:00,
2013-05-01 12:34:00,31.0,23.0,29.66,ENE,71,1.0,5.0,72,0.00,,,0.00,LWC V2.00 B2112,2013-05-01 20:34:00,
2013-05-01 12:39:00,31.3,23.7,29.65,NW,312,2.0,2.0,73,0.00,,,0.00,LWC V2.00 B2112,2013-05-01 20:39:00,
2013-05-01 12:44:00,31.7,23.1,29.65,West,260,0.0,1.0,70,0.00,,,0.00,LWC V2.00 B2112,2013-05-01 20:44:00,
2013-05-01 12:49:00,31.9,23.2,29.65,SE,130,2.0,2.0,70,0.00,,,0.00,LWC V2.00 B2112,2013-05-01 20:49:00,
2013-05-01 12:54:00,32.0,23.7,29.65,ENE,69,0.0,1.0,71,0.00,,,0.00,LWC V2.00 B2112,2013-05-01 20:54:00,
2013-05-01 12:59:00,32.6,23.6,29.65,East,80,2.0,3.0,69,0.00,,,0.01,LWC V2.00 B2112,2013-05-01 20:59:00,
2013-05-01 13:04:00,32.1,23.4,29.65,East,101,0.0,3.0,70,0.00,,,0.01,LWC V2.00 B2112,2013-05-01 21:04:00,
2013-05-01 13:09:00,31.8,23.5,29.65,WSW,240,0.0,2.0,71,0.06,,,0.02,LWC V2.00 B2112,2013-05-01 21:09:00,
2013-05-01 13:14:00,31.6,24.0,29.65,East,80,3.0,4.0,73,0.06,,,0.02,LWC V2.00 B2112,2013-05-01 21:14:00,
2013-05-01 13:19:00,31.8,24.1,29.65,East,81,1.0,1.0,73,0.06,,,0.02,LWC V2.00 B2112,2013-05-01 21:19:00,
2013-05-01 13:24:00,31.9,24.2,29.65,East,82,1.0,3.0,73,0.05,,,0.03,LWC V2.00 B2112,2013-05-01 21:24:00,
2013-05-01 13:29:00,32.0,24.7,29.65,East,95,1.0,4.0,74,0.07,,,0.04,LWC V2.00 B2112,2013-05-01 21:29:00,
2013-05-01 13:34:00,32.4,24.7,29.65,ESE,115,2.0,3.0,73,0.22,,,0.05,LWC V2.00 B2112,2013-05-01 21:34:00,
2013-05-01 13:39:00,32.5,25.2,29.65,SE,126,0.0,1.0,74,0.08,,,0.05,LWC V2.00 B2112,2013-05-01 21:39:00,
2013-05-01 13:44:00,32.7,24.7,29.65,ESE,122,0.0,2.0,72,0.06,,,0.06,LWC V2.00 B2112,2013-05-01 21:44:00,
2013-05-01 13:49:00,33.0,24.6,29.65,ENE,63,2.0,6.0,71,0.06,,,0.06,LWC V2.00 B2112,2013-05-01 21:49:00,
2013-05-01 13:54:00,32.5,24.2,29.65,NNE,32,2.0,5.0,71,0.06,,,0.07,LWC V2.00 B2112,2013-05-01 21:54:00,
2013-05-01 13:59:00,32.4,24.1,29.65,ENE,63,0.0,2.0,71,0.06,,,0.07,LWC V2.00 B2112,2013-05-01 21:59:00,
2013-05-01 14:04:00,32.9,25.2,29.65,SE,126,2.0,4.0,73,0.05,,,0.08,LWC V2.00 B2112,2013-05-01 22:04:00,
2013-05-01 14:09:00,33.5,24.4,29.64,ENE,58,3.0,5.0,69,0.05,,,0.08,LWC V2.00 B2112,2013-05-01 22:09:00,
2013-05-01 14:14:00,33.3,24.2,29.64,SE,128,5.0,7.0,69,0.06,,,0.09,LWC V2.00 B2112,2013-05-01 22:14:00,
2013-05-01 14:19:00,33.2,24.5,29.64,East,81,5.0,5.0,70,0.06,,,0.09,LWC V2.00 B2112,2013-05-01 22:19:00,
2013-05-01 14:24:00,33.2,24.5,29.64,SSW,207,1.0,3.0,70,0.07,,,0.10,LWC V2.00 B2112,2013-05-01 22:24:00,
2013-05-01 14:29:00,33.9,24.5,29.64,East,83,2.0,5.0,68,0.09,,,0.11,LWC V2.00 B2112,2013-05-01 22:29:00,
2013-05-01 14:34:00,34.2,24.8,29.64,WSW,249,1.0,2.0,68,0.09,,,0.11,LWC V2.00 B2112,2013-05-01 22:34:00,
2013-05-01 14:39:00,34.4,24.6,29.64,ENE,66,3.0,3.0,67,0.10,,,0.12,LWC V2.00 B2112,2013-05-01 22:39:00,
2013-05-01 14:44:00,34.4,25.0,29.63,East,95,1.0,2.0,68,0.07,,,0.13,LWC V2.00 B2112,2013-05-01 22:44:00,
2013-05-01 14:49:00,35.0,25.2,29.63,NE,55,2.0,3.0,67,0.07,,,0.13,LWC V2.00 B2112,2013-05-01 22:49:00,
2013-05-01 14:54:00,34.9,24.7,29.63,SE,138,1.0,3.0,66,0.06,,,0.13,LWC V2.00 B2112,2013-05-01 22:54:00,
2013-05-01 14:59:00,35.2,25.0,29.63,East,88,1.0,2.0,66,0.05,,,0.14,LWC V2.00 B2112,2013-05-01 22:59:00,
2013-05-01 15:04:00,35.6,25.4,29.63,SE,133,3.0,4.0,66,0.05,,,0.14,LWC V2.00 B2112,2013-05-01 23:04:00,
2013-05-01 15:09:00,35.6,25.4,29.63,East,88,0.0,1.0,66,0.04,,,0.14,LWC V2.00 B2112,2013-05-01 23:09:00,
2013-05-01 15:14:00,35.9,25.3,29.63,East,85,2.0,3.0,65,0.00,,,0.14,LWC V2.00 B2112,2013-05-01 23:14:00,
2013-05-01 15:19:00,35.7,25.1,29.63,SE,144,1.0,4.0,65,0.00,,,0.15,LWC V2.00 B2112,2013-05-01 23:19:00,
2013-05-01 15:24:00,35.4,24.5,29.63,SE,126,3.0,3.0,64,0.00,,,0.15,LWC V2.00 B2112,2013-05-01 23:24:00,
2013-05-01 15:29:00,35.5,24.5,29.62,SSE,167,1.0,2.0,64,0.00,,,0.15,LWC V2.00 B2112,2013-05-01 23:29:00,
2013-05-01 15:34:00,35.7,25.1,29.62,ESE,123,2.0,2.0,65,0.00,,,0.15,LWC V2.00 B2112,2013-05-01 23:34:00,
2013-05-01 15:39:00,36.0,24.6,29.62,East,91,1.0,3.0,63,0.00,,,0.15,LWC V2.00 B2112,2013-05-01 23:39:00,
2013-05-01 15:44:00,35.6,24.3,29.62,ESE,116,1.0,5.0,63,0.00,,,0.16,LWC V2.00 B2112,2013-05-01 23:44:00,
2013-05-01 15:49:00,35.5,24.2,29.62,ESE,120,2.0,2.0,63,0.00,,,0.16,LWC V2.00 B2112,2013-05-01 23:49:00,
2013-05-01 15:54:00,35.6,24.3,29.62,NE,54,1.0,2.0,63,0.00,,,0.16,LWC V2.00 B2112,2013-05-01 23:54:00,
2013-05-01 15:59:00,35.8,24.5,29.62,ENE,71,0.0,2.0,63,0.00,,,0.16,LWC V2.00 B2112,2013-05-01 23:59:00,
2013-05-01 16:04:00,35.7,24.4,29.61,ESE,123,0.0,5.0,63,0.00,,,0.16,LWC V2.00 B2112,2013-05-02 00:04:00,
2013-05-01 16:09:00,35.3,24.0,29.61,SSE,159,1.0,2.0,63,0.00,,,0.16,LWC V2.00 B2112,2013-05-02 00:09:00,
2013-05-01 16:14:00,35.7,24.0,29.61,ESE,114,4.0,5.0,62,0.00,,,0.16,LWC V2.00 B2112,2013-05-02 00:14:00,
2013-05-01 16:19:00,35.6,24.3,29.61,WSW,244,3.0,3.0,63,0.00,,,0.16,LWC V2.00 B2112,2013-05-02 00:19:00,
2013-05-01 16:24:00,35.5,24.2,29.61,SSE,156,0.0,1.0,63,0.00,,,0.16,LWC V2.00 B2112,2013-05-02 00:24:00,
2013-05-01 16:29:00,35.2,23.5,29.61,NW,323,0.0,2.0,62,0.00,,,0.16,LWC V2.00 B2112,2013-05-02 00:29:00,
2013-05-01 16:34:00,35.5,24.2,29.61,West,268,3.0,5.0,63,0.00,,,0.17,LWC V2.00 B2112,2013-05-02 00:34:00,
2013-05-01 16:39:00,35.2,23.9,29.60,ESE,108,0.0,4.0,63,0.00,,,0.17,LWC V2.00 B2112,2013-05-02 00:39:00,
2013-05-01 16:44:00,35.1,23.8,29.60,ESE,104,1.0,3.0,63,0.00,,,0.17,LWC V2.00 B2112,2013-05-02 00:44:00,
2013-05-01 16:49:00,34.8,23.5,29.60,SSE,148,2.0,2.0,63,0.00,,,0.17,LWC V2.00 B2112,2013-05-02 00:49:00,
2013-05-01 16:54:00,34.5,23.2,29.61,ENE,66,3.0,3.0,63,0.00,,,0.17,LWC V2.00 B2112,2013-05-02 00:54:00,
2013-05-01 16:59:00,34.2,23.3,29.60,ENE,77,2.0,4.0,64,0.00,,,0.17,LWC V2.00 B2112,2013-05-02 00:59:00,
2013-05-01 17:04:00,34.0,23.1,29.60,ENE,61,2.0,4.0,64,0.00,,,0.17,LWC V2.00 B2112,2013-05-02 01:04:00,
2013-05-01 17:09:00,34.0,23.5,29.60,ENE,78,1.0,3.0,65,0.00,,,0.17,LWC V2.00 B2112,2013-05-02 01:09:00,
2013-05-01 17:14:00,33.9,23.0,29.60,East,100,3.0,5.0,64,0.00,,,0.17,LWC V2.00 B2112,2013-05-02 01:14:00,
2013-05-01 17:19:00,33.8,22.6,29.60,West,263,1.0,4.0,63,0.00,,,0.17,LWC V2.00 B2112,2013-05-02 01:19:00,
2013-05-01 17:24:00,34.0,22.7,29.60,ESE,109,1.0,2.0,63,0.00,,,0.17,LWC V2.00 B2112,2013-05-02 01:24:00,
2013-05-01 17:29:00,34.0,22.4,29.60,SE,134,1.0,5.0,62,0.00,,,0.17,LWC V2.00 B2112,2013-05-02 01:29:00,
2013-05-01 17:34:00,34.1,22.5,29.60,SE,142,3.0,3.0,62,0.00,,,0.17,LWC V2.00 B2112,2013-05-02 01:34:00,
2013-05-01 17:39:00,33.9,22.3,29.60,NW,311,0.0,3.0,62,0.00,,,0.17,LWC V2.00 B2112,2013-05-02 01:39:00,
2013-05-01 17:44:00,34.1,22.5,29.60,SE,125,0.0,3.0,62,0.00,,,0.18,LWC V2.00 B2112,2013-05-02 01:44:00,
2013-05-01 17:49:00,34.1,22.5,29.60,East,98,2.0,4.0,62,0.00,,,0.18,LWC V2.00 B2112,2013-05-02 01:49:00,
2013-05-01 17:54:00,33.7,22.1,29.60,North,5,2.0,3.0,62,0.00,,,0.18,LWC V2.00 B2112,2013-05-02 01:54:00,
2013-05-01 17:59:00,33.6,22.0,29.60,East,80,2.0,2.0,62,0.00,,,0.18,LWC V2.00 B2112,2013-05-02 01:59:00,
2013-05-01 18:04:00,33.1,21.9,29.60,SSE,153,1.0,3.0,63,0.00,,,0.18,LWC V2.00 B2112,2013-05-02 02:04:00,
2013-05-01 18:09:00,32.9,21.3,29.60,SSE,165,1.0,2.0,62,0.00,,,0.18,LWC V2.00 B2112,2013-05-02 02:09:00,
2013-05-01 18:14:00,32.8,21.2,29.60,NNE,28,2.0,2.0,62,0.00,,,0.18,LWC V2.00 B2112,2013-05-02 02:14:00,
2013-05-01 18:19:00,32.6,21.4,29.60,East,92,3.0,3.0,63,0.00,,,0.18,LWC V2.00 B2112,2013-05-02 02:19:00,
2013-05-01 18:24:00,32.7,21.1,29.60,ENE,61,2.0,3.0,62,0.00,,,0.18,LWC V2.00 B2112,2013-05-02 02:24:00,
2013-05-01 18:29:00,32.5,20.9,29.60,SE,135,2.0,5.0,62,0.00,,,0.18,LWC V2.00 B2112,2013-05-02 02:29:00,
2013-05-01 18:34:00,32.5,20.9,29.60,WSW,241,3.0,3.0,62,0.00,,,0.18,LWC V2.00 B2112,2013-05-02 02:34:00,
2013-05-01 18:39:00,32.4,20.9,29.60,NW,319,0.0,4.0,62,0.00,,,0.18,LWC V2.00 B2112,2013-05-02 02:39:00,
2013-05-01 18:44:00,32.5,20.6,29.60,NE,54,0.0,3.0,61,0.00,,,0.18,LWC V2.00 B2112,2013-05-02 02:44:00,
2013-05-01 18:49:00,32.8,20.9,29.60,SW,214,1.0,2.0,61,0.00,,,0.18,LWC V2.00 B2112,2013-05-02 02:49:00,
2013-05-01 18:54:00,32.7,20.4,29.60,SW,233,2.0,2.0,60,0.00,,,0.18,LWC V2.00 B2112,2013-05-02 02:54:00,
2013-05-01 18:59:00,32.5,20.2,29.60,WNW,300,1.0,3.0,60,0.00,,,0.18,LWC V2.00 B2112,2013-05-02 02:59:00,
2013-05-01 19:04:00,32.3,20.0,29.60,SE,128,3.0,5.0,60,0.00,,,0.18,LWC V2.00 B2112,2013-05-02 03:04:00,
2013-05-01 19:09:00,32.0,20.1,29.60,ESE,117,2.0,2.0,61,0.00,,,0.18,LWC V2.00 B2112,2013-05-02 03:09:00,
2013-05-01 19:14:00,32.1,19.8,29.60,SSE,148,1.0,2.0,60,0.00,,,0.18,LWC V2.00 B2112,2013-05-02 03:14:00,
2013-05-01 19:19:00,31.9,19.6,29.60,WNW,283,1.0,2.0,60,0.00,,,0.18,LWC V2.00 B2112,2013-05-02 03:19:00,
2013-05-01 19:24:00,32.1,19.8,29.60,ESE,103,0.0,5.0,60,0.00,,,0.18,LWC V2.00 B2112,2013-05-02 03:24:00,
2013-05-01 19:29:00,32.1,19.4,29.60,West,275,0.0,3.0,59,0.00,,,0.18,LWC V2.00 B2112,2013-05-02 03:29:00,
2013-05-01 19:34:00,31.6,18.9,29.60,ESE,104,5.0,5.0,59,0.00,,,0.18,LWC V2.00 B2112,2013-05-02 03:34:00,
2013-05-01 19:39:00,31.4,19.5,29.60,SE,131,2.0,2.0,61,0.00,,,0.18,LWC V2.00 B2112,2013-05-02 03:39:00,
2013-05-01 19:44:00,31.2,19.3,29.60,ESE,104,0.0,1.0,61,0.00,,,0.18,LWC V2.00 B2112,2013-05-02 03:44:00,
2013-05-01 19:49:00,31.0,18.8,29.60,ESE,105,1.0,3.0,60,0.00,,,0.18,LWC V2.00 B2112,2013-05-02 03:49:00,
2013-05-01 19:54:00,30.7,18.1,29.60,East,96,1.0,7.0,59,0.00,,,0.18,LWC V2.00 B2112,2013-05-02 03:54:00,
2013-05-01 19:59:00,30.2,17.6,29.60,ESE,116,3.0,6.0,59,0.00,,,0.18,LWC V2.00 B2112,2013-05-02 03:59:00,
2013-05-01 20:04:00,29.8,16.8,29.60,East,97,1.0,6.0,58,0.00,,,0.18,LWC V2.00 B2112,2013-05-02 04:04:00,
2013-05-01 20:09:00,29.7,17.1,29.60,East,97,0.0,4.0,59,0.00,,,0.18,LWC V2.00 B2112,2013-05-02 04:09:00,
2013-05-01 20:14:00,29.5,17.3,29.59,ESE,114,3.0,3.0,60,0.00,,,0.18,LWC V2.00 B2112,2013-05-02 04:14:00,
2013-05-01 20:19:00,29.3,17.2,29.60,SSE,147,2.0,2.0,60,0.00,,,0.18,LWC V2.00 B2112,2013-05-02 04:19:00,
2013-05-01 20:24:00,29.0,17.3,29.60,WSW,254,0.0,8.0,61,0.00,,,0.18,LWC V2.00 B2112,2013-05-02 04:24:00,
2013-05-01 20:29:00,28.7,17.0,29.60,ENE,76,1.0,2.0,61,0.00,,,0.18,LWC V2.00 B2112,2013-05-02 04:29:00,
2013-05-01 20:34:00,28.4,15.9,29.60,ESE,115,5.0,5.0,59,0.00,,,0.18,LWC V2.00 B2112,2013-05-02 04:34:00,
2013-05-01 20:39:00,28.2,15.7,29.60,East,90,0.0,5.0,59,0.00,,,0.18,LWC V2.00 B2112,2013-05-02 04:39:00,
2013-05-01 20:44:00,28.0,15.9,29.60,SSE,156,1.0,2.0,60,0.00,,,0.18,LWC V2.00 B2112,2013-05-02 04:44:00,
2013-05-01 20:49:00,27.9,16.2,29.61,ENE,59,2.0,3.0,61,0.00,,,0.18,LWC V2.00 B2112,2013-05-02 04:49:00,
2013-05-01 20:54:00,27.8,16.5,29.61,North,11,2.0,3.0,62,0.00,,,0.18,LWC V2.00 B2112,2013-05-02 04:54:00,
2013-05-01 20:59:00,27.6,16.3,29.61,ESE,103,2.0,3.0,62,0.00,,,0.18,LWC V2.00 B2112,2013-05-02 04:59:00,
2013-05-01 21:04:00,27.5,16.2,29.61,WSW,244,0.0,3.0,62,0.00,,,0.18,LWC V2.00 B2112,2013-05-02 05:04:00,
2013-05-01 21:09:00,27.4,16.1,29.61,SW,217,1.0,1.0,62,0.00,,,0.18,LWC V2.00 B2112,2013-05-02 05:09:00,
2013-05-01 21:14:00,27.2,15.9,29.61,East,97,1.0,2.0,62,0.00,,,0.18,LWC V2.00 B2112,2013-05-02 05:14:00,
2013-05-01 21:19:00,27.0,15.4,29.61,NNE,30,1.0,1.0,61,0.00,,,0.18,LWC V2.00 B2112,2013-05-02 05:19:00,
2013-05-01 21:24:00,26.7,15.1,29.62,NNW,333,0.0,1.0,61,0.00,,,0.18,LWC V2.00 B2112,2013-05-02 05:24:00,
2013-05-01 21:29:00,26.5,15.3,29.62,SSE,154,4.0,4.0,62,0.00,,,0.18,LWC V2.00 B2112,2013-05-02 05:29:00,
2013-05-01 21:34:00,26.3,14.7,29.62,ESE,115,0.0,5.0,61,0.00,,,0.18,LWC V2.00 B2112,2013-05-02 05:34:00,
2013-05-01 21:39:00,26.1,14.9,29.62,East,81,0.0,2.0,62,0.00,,,0.18,LWC V2.00 B2112,2013-05-02 05:39:00,
2013-05-01 21:44:00,26.0,14.8,29.62,NNE,22,3.0,3.0,62,0.00,,,0.18,LWC V2.00 B2112,2013-05-02 05:44:00,
2013-05-01 21:49:00,25.9,14.7,29.62,ESE,117,1.0,2.0,62,0.00,,,0.18,LWC V2.00 B2112,2013-05-02 05:49:00,
2013-05-01 21:54:00,25.8,14.6,29.62,East,96,1.0,2.0,62,0.00,,,0.18,LWC V2.00 B2112,2013-05-02 05:54:00,
2013-05-01 21:59:00,25.6,14.4,29.62,ESE,108,1.0,2.0,62,0.00,,,0.18,LWC V2.00 B2112,2013-05-02 05:59:00,
2013-05-01 22:04:00,25.4,13.9,29.63,ENE,77,0.0,3.0,61,0.00,,,0.18,LWC V2.00 B2112,2013-05-02 06:04:00,
2013-05-01 22:09:00,25.3,13.8,29.63,East,86,1.0,2.0,61,0.00,,,0.18,LWC V2.00 B2112,2013-05-02 06:09:00,
2013-05-01 22:14:00,25.1,13.6,29.63,ESE,115,1.0,1.0,61,0.00,,,0.18,LWC V2.00 B2112,2013-05-02 06:14:00,
2013-05-01 22:19:00,25.0,13.5,29.63,ENE,70,3.0,3.0,61,0.00,,,0.18,LWC V2.00 B2112,2013-05-02 06:19:00,
2013-05-01 22:24:00,24.9,13.8,29.63,SE,145,1.0,2.0,62,0.00,,,0.18,LWC V2.00 B2112,2013-05-02 06:24:00,
2013-05-01 22:29:00,24.6,13.5,29.63,ENE,71,2.0,2.0,62,0.00,,,0.18,LWC V2.00 B2112,2013-05-02 06:29:00,
2013-05-01 22:34:00,24.4,13.6,29.63,SE,132,1.0,2.0,63,0.00,,,0.18,LWC V2.00 B2112,2013-05-02 06:34:00,
2013-05-01 22:39:00,24.2,13.1,29.63,WSW,256,0.0,7.0,62,0.00,,,0.18,LWC V2.00 B2112,2013-05-02 06:39:00,
2013-05-01 22:44:00,24.0,12.5,29.64,ESE,113,0.0,2.0,61,0.00,,,0.18,LWC V2.00 B2112,2013-05-02 06:44:00,
2013-05-01 22:49:00,23.8,13.1,29.64,NNW,331,0.0,0.0,63,0.00,,,0.18,LWC V2.00 B2112,2013-05-02 06:49:00,
2013-05-01 22:54:00,23.5,12.4,29.64,SE,130,2.0,4.0,62,0.00,,,0.18,LWC V2.00 B2112,2013-05-02 06:54:00,
2013-05-01 22:59:00,23.4,12.3,29.64,NNE,24,1.0,5.0,62,0.00,,,0.18,LWC V2.00 B2112,2013-05-02 06:59:00,
2013-05-01 23:04:00,23.3,12.2,29.64,East,88,0.0,1.0,62,0.00,,,0.18,LWC V2.00 B2112,2013-05-02 07:04:00,
2013-05-01 23:09:00,23.2,12.1,29.64,NW,304,1.0,4.0,62,0.00,,,0.18,LWC V2.00 B2112,2013-05-02 07:09:00,
2013-05-01 23:14:00,23.0,12.7,29.64,WSW,252,0.0,1.0,64,0.00,,,0.18,LWC V2.00 B2112,2013-05-02 07:14:00,
2013-05-01 23:19:00,22.7,12.4,29.64,ESE,102,0.0,0.0,64,0.00,,,0.18,LWC V2.00 B2112,2013-05-02 07:19:00,
2013-05-01 23:24:00,22.5,12.5,29.64,NE,54,0.0,2.0,65,0.00,,,0.18,LWC V2.00 B2112,2013-05-02 07:24:00,
2013-05-01 23:29:00,22.4,12.1,29.64,South,190,1.0,1.0,64,0.00,,,0.18,LWC V2.00 B2112,2013-05-02 07:29:00,
2013-05-01 23:34:00,22.3,12.0,29.64,South,175,1.0,1.0,64,0.00,,,0.18,LWC V2.00 B2112,2013-05-02 07:34:00,
2013-05-01 23:39:00,22.3,11.6,29.64,SSE,159,0.0,1.0,63,0.00,,,0.18,LWC V2.00 B2112,2013-05-02 07:39:00,
2013-05-01 23:44:00,21.9,12.7,29.64,SSW,213,0.0,1.0,67,0.00,,,0.18,LWC V2.00 B2112,2013-05-02 07:44:00,
2013-05-01 23:49:00,21.5,11.6,29.65,SSW,211,0.0,1.0,65,0.00,,,0.18,LWC V2.00 B2112,2013-05-02 07:49:00,
2013-05-01 23:54:00,21.4,11.8,29.65,SSW,213,0.0,0.0,66,0.00,,,0.18,LWC V2.00 B2112,2013-05-02 07:54:00,
2013-05-01 23:59:00,21.2,12.0,29.64,South,187,1.0,2.0,67,0.00,,,0.18,LWC V2.00 B2112,2013-05-02 07:59:00,